• In Belarus
  • List of Countries
  • For 7 days
  • Water Temperature
  • Weather Map
  • Weather Widgets
  • user-avatar
    Login

    Hourly Weather Corozal

    Today, 25 January, Saturday

    Time Temperature Precipitation Wind Pressure Humidity
    00:00 +22°C° 0 mm 1 mps 762 mmHg 93%
    01:00 +22°C° 0 mm 1 mps 762 mmHg 94%
    02:00 +22°C° 0 mm 1 mps 762 mmHg 95%
    03:00 +21°C° 0 mm 1 mps 761 mmHg 96%
    04:00 +20°C° 0 mm 2 mps 762 mmHg 96%
    05:00 +20°C° 0 mm 2 mps 762 mmHg 97%
    06:00 +20°C° 0 mm 2 mps 762 mmHg 98%
    07:00 +21°C° 0 mm 2 mps 763 mmHg 92%
    08:00 +23°C° 0 mm 2 mps 763 mmHg 87%
    09:00 +24°C° 0 mm 2 mps 764 mmHg 82%
    10:00 +26°C° 0 mm 2 mps 763 mmHg 74%
    11:00 +28°C° 0 mm 2 mps 763 mmHg 66%
    12:00 +29°C° 0 mm 2 mps 763 mmHg 58%
    13:00 +29°C° 0 mm 2 mps 762 mmHg 56%
    14:00 +29°C° 0 mm 2 mps 761 mmHg 54%
    15:00 +30°C° 0 mm 2 mps 761 mmHg 52%
    16:00 +28°C° 0 mm 2 mps 761 mmHg 60%
    17:00 +26°C° 0 mm 2 mps 761 mmHg 69%
    18:00 +24°C° 0 mm 2 mps 761 mmHg 77%
    19:00 +23°C° 0 mm 2 mps 762 mmHg 79%
    20:00 +23°C° 0 mm 2 mps 762 mmHg 82%
    21:00 +21°C° 0 mm 2 mps 763 mmHg 84%
    22:00 +22°C° 0 mm 1 mps 763 mmHg 86%
    23:00 +22°C° 0 mm 1 mps 762 mmHg 87%

    Tomorrow, 26 January, Sunday

    Time Temperature Precipitation Wind Pressure Humidity
    00:00 +21°C° 0 mm 1 mps 762 mmHg 89%
    01:00 +21°C° 0 mm 1 mps 762 mmHg 90%
    02:00 +21°C° 0 mm 1 mps 761 mmHg 90%
    03:00 +21°C° 0 mm 1 mps 761 mmHg 90%
    04:00 +21°C° 0 mm 1 mps 761 mmHg 91%
    05:00 +21°C° 0 mm 1 mps 761 mmHg 92%
    06:00 +21°C° 0 mm 1 mps 761 mmHg 92%
    07:00 +23°C° 0 mm 1 mps 762 mmHg 84%
    08:00 +25°C° 0 mm 1 mps 762 mmHg 76%
    09:00 +27°C° 0 mm 2 mps 763 mmHg 69%
    10:00 +28°C° 0 mm 2 mps 762 mmHg 65%
    11:00 +28°C° 0 mm 2 mps 762 mmHg 62%
    12:00 +29°C° 0 mm 2 mps 761 mmHg 58%
    13:00 +29°C° 0 mm 3 mps 761 mmHg 58%
    14:00 +29°C° 0 mm 3 mps 760 mmHg 59%
    15:00 +29°C° 0 mm 3 mps 759 mmHg 59%
    16:00 +27°C° 0 mm 3 mps 759 mmHg 66%
    17:00 +26°C° 0 mm 2 mps 759 mmHg 73%
    18:00 +24°C° 0 mm 2 mps 759 mmHg 80%
    19:00 +23°C° 0 mm 2 mps 759 mmHg 83%
    20:00 +23°C° 0 mm 1 mps 760 mmHg 86%
    21:00 +22°C° 0 mm 1 mps 760 mmHg 89%
    22:00 +22°C° 0 mm 1 mps 760 mmHg 90%
    23:00 +22°C° 0 mm 1 mps 760 mmHg 92%

    Day after tomorrow, 27 January, Monday

    Time Temperature Precipitation Wind Pressure Humidity
    00:00 +21°C° 0 mm 1 mps 760 mmHg 93%
    01:00 +21°C° 0 mm 1 mps 759 mmHg 94%
    02:00 +21°C° 0 mm 1 mps 759 mmHg 94%
    03:00 +21°C° 0 mm 1 mps 759 mmHg 95%
    04:00 +21°C° 0 mm 1 mps 759 mmHg 95%
    05:00 +19°C° 0 mm 0 mps 759 mmHg 95%
    06:00 +19°C° 0 mm 0 mps 760 mmHg 95%
    07:00 +23°C° 0 mm 1 mps 760 mmHg 88%
    08:00 +25°C° 0 mm 1 mps 761 mmHg 81%
    09:00 +27°C° 0 mm 1 mps 761 mmHg 74%
    10:00 +28°C° 0 mm 1 mps 761 mmHg 68%
    11:00 +30°C° 0 mm 1 mps 760 mmHg 63%
    12:00 +31°C° 0 mm 1 mps 760 mmHg 58%
    13:00 +31°C° 0 mm 1 mps 759 mmHg 58%
    14:00 +31°C° 0 mm 2 mps 759 mmHg 59%
    15:00 +31°C° 0 mm 2 mps 758 mmHg 59%
    16:00 +29°C° 0 mm 2 mps 758 mmHg 66%
    17:00 +27°C° 0 mm 2 mps 758 mmHg 74%
    18:00 +25°C° 0 mm 3 mps 759 mmHg 81%
    19:00 +25°C° 0 mm 2 mps 759 mmHg 84%
    20:00 +24°C° 0 mm 2 mps 759 mmHg 87%
    21:00 +23°C° 0 mm 2 mps 760 mmHg 89%
    22:00 +23°C° 0 mm 1 mps 759 mmHg 90%
    23:00 +23°C° 0 mm 1 mps 759 mmHg 91%

    28 January, Tuesday

    Time Temperature Precipitation Wind Pressure Humidity
    00:00 +23°C° 0 mm 1 mps 759 mmHg 93%
    01:00 +22°C° 0 mm 1 mps 759 mmHg 94%
    02:00 +22°C° 0 mm 1 mps 758 mmHg 95%
    03:00 +22°C° 0 mm 1 mps 758 mmHg 96%
    04:00 +20°C° 0 mm 0 mps 758 mmHg 96%
    05:00 +20°C° 0 mm 0 mps 758 mmHg 96%
    06:00 +19°C° 0 mm 0 mps 758 mmHg 97%
    07:00 +21°C° 0 mm 0 mps 759 mmHg 90%
    08:00 +25°C° 0 mm 1 mps 759 mmHg 84%
    09:00 +27°C° 0 mm 1 mps 759 mmHg 77%
    10:00 +28°C° 0 mm 1 mps 759 mmHg 72%
    11:00 +30°C° 0 mm 2 mps 759 mmHg 66%
    12:00 +31°C° 0 mm 2 mps 758 mmHg 61%
    13:00 +31°C° 0 mm 3 mps 758 mmHg 61%
    14:00 +31°C° 0 mm 3 mps 757 mmHg 62%
    15:00 +31°C° 0 mm 3 mps 756 mmHg 62%
    16:00 +29°C° 0 mm 3 mps 756 mmHg 69%
    17:00 +27°C° 0 mm 2 mps 757 mmHg 76%
    18:00 +25°C° 0 mm 2 mps 757 mmHg 83%
    19:00 +25°C° 0 mm 2 mps 757 mmHg 85%
    20:00 +24°C° 0 mm 2 mps 758 mmHg 87%
    21:00 +24°C° 0 mm 2 mps 758 mmHg 89%
    22:00 +24°C° 0 mm 2 mps 758 mmHg 91%
    23:00 +24°C° 0 mm 2 mps 758 mmHg 92%

    29 January, Wednesday

    Time Temperature Precipitation Wind Pressure Humidity
    00:00 +23°C° 0 mm 2 mps 758 mmHg 94%
    01:00 +23°C° 0 mm 1 mps 758 mmHg 95%
    02:00 +23°C° 0 mm 1 mps 757 mmHg 96%
    03:00 +23°C° 0 mm 1 mps 757 mmHg 97%
    04:00 +23°C° 0 mm 1 mps 758 mmHg 97%
    05:00 +21°C° 0 mm 0 mps 758 mmHg 97%
    06:00 +21°C° 0 mm 0 mps 758 mmHg 97%
    07:00 +22°C° 0 mm 0 mps 759 mmHg 90%
    08:00 +26°C° 0 mm 1 mps 759 mmHg 83%
    09:00 +28°C° 0 mm 1 mps 760 mmHg 76%
    10:00 +30°C° 0 mm 1 mps 760 mmHg 70%
    11:00 +31°C° 0 mm 1 mps 759 mmHg 63%
    12:00 +32°C° 0 mm 1 mps 759 mmHg 57%
    13:00 +32°C° 0 mm 1 mps 758 mmHg 59%
    14:00 +31°C° 0 mm 2 mps 757 mmHg 62%
    15:00 +31°C° 0 mm 2 mps 757 mmHg 64%
    16:00 +29°C° 0 mm 2 mps 757 mmHg 71%
    17:00 +28°C° 0 mm 2 mps 757 mmHg 77%
    18:00 +26°C° 0 mm 2 mps 758 mmHg 83%
    19:00 +25°C° 0 mm 2 mps 758 mmHg 86%
    20:00 +25°C° 0 mm 1 mps 759 mmHg 89%
    21:00 +24°C° 0 mm 1 mps 759 mmHg 92%
    22:00 +24°C° 0.1 mm 1 mps 759 mmHg 93%
    23:00 +24°C° 0.1 mm 1 mps 759 mmHg 94%

    30 January, Thursday

    Time Temperature Precipitation Wind Pressure Humidity
    00:00 +21°C° 0.1 mm 0 mps 759 mmHg 96%
    01:00 +21°C° 0 mm 0 mps 759 mmHg 96%
    02:00 +21°C° 0 mm 0 mps 758 mmHg 97%
    03:00 +21°C° 0 mm 0 mps 758 mmHg 97%
    04:00 +21°C° 0 mm 0 mps 758 mmHg 97%
    05:00 +23°C° 0 mm 1 mps 759 mmHg 97%
    06:00 +23°C° 0 mm 1 mps 759 mmHg 98%
    07:00 +24°C° 0 mm 1 mps 759 mmHg 92%
    08:00 +26°C° 0 mm 1 mps 760 mmHg 87%
    09:00 +27°C° 0 mm 1 mps 760 mmHg 81%
    10:00 +28°C° 0.1 mm 1 mps 760 mmHg 76%
    11:00 +29°C° 0.1 mm 1 mps 759 mmHg 71%
    12:00 +30°C° 0.1 mm 2 mps 759 mmHg 65%
    13:00 +30°C° 0 mm 2 mps 758 mmHg 64%
    14:00 +30°C° 0 mm 3 mps 758 mmHg 63%
    15:00 +30°C° 0 mm 3 mps 757 mmHg 62%
    16:00 +29°C° 0 mm 3 mps 757 mmHg 69%
    17:00 +27°C° 0 mm 3 mps 757 mmHg 75%
    18:00 +26°C° 0 mm 2 mps 757 mmHg 82%
    19:00 +25°C° 0 mm 2 mps 758 mmHg 85%
    20:00 +25°C° 0 mm 2 mps 758 mmHg 88%
    21:00 +24°C° 0 mm 2 mps 759 mmHg 90%
    22:00 +24°C° 0 mm 2 mps 758 mmHg 91%
    23:00 +24°C° 0 mm 2 mps 758 mmHg 91%
    Show more